• In Netherlands
  • List of Countries
  • For 7 days
  • Water Temperature
  • Satellite Maps
  • Weather Map
  • Weather Widgets
  • user-avatar
    Login

    Hourly Weather Melbourne

    Today, 23 September, Saturday

    Time Temperature Precipitation Wind Pressure Humidity
    00:00 +18°C° 0 mm 4 mps 751 mmHg 54%
    01:00 +18°C° 0 mm 4 mps 751 mmHg 50%
    02:00 +19°C° 0 mm 4 mps 750 mmHg 48%
    03:00 +19°C° 0 mm 4 mps 749 mmHg 46%
    04:00 +20°C° 0 mm 5 mps 748 mmHg 41%
    05:00 +19°C° 0 mm 5 mps 748 mmHg 42%
    06:00 +19°C° 0 mm 5 mps 748 mmHg 42%
    07:00 +17°C° 0 mm 5 mps 747 mmHg 43%
    08:00 +20°C° 0.1 mm 5 mps 747 mmHg 43%
    09:00 +22°C° 0.1 mm 5 mps 746 mmHg 43%
    10:00 +23°C° 0.1 mm 4 mps 745 mmHg 42%
    11:00 +26°C° 0 mm 5 mps 744 mmHg 41%
    12:00 +27°C° 0 mm 6 mps 743 mmHg 39%
    13:00 +28°C° 0 mm 7 mps 742 mmHg 38%
    14:00 +29°C° 0 mm 7 mps 742 mmHg 39%
    15:00 +29°C° 0 mm 7 mps 742 mmHg 40%
    16:00 +29°C° 0 mm 7 mps 741 mmHg 41%
    17:00 +26°C° 0 mm 6 mps 743 mmHg 50%
    18:00 +21°C° 0 mm 5 mps 744 mmHg 60%
    19:00 +17°C° 0 mm 5 mps 746 mmHg 69%
    20:00 +17°C° 0 mm 4 mps 746 mmHg 68%
    21:00 +15°C° 0 mm 4 mps 747 mmHg 66%
    22:00 +14°C° 0 mm 4 mps 747 mmHg 65%
    23:00 +14°C° 0 mm 4 mps 748 mmHg 66%

    Tomorrow, 24 September, Sunday

    Time Temperature Precipitation Wind Pressure Humidity
    00:00 +13°C° 0 mm 4 mps 748 mmHg 67%
    01:00 +12°C° 0 mm 4 mps 748 mmHg 68%
    02:00 +12°C° 0 mm 4 mps 748 mmHg 70%
    03:00 +12°C° 0 mm 4 mps 748 mmHg 71%
    04:00 +12°C° 0 mm 4 mps 747 mmHg 73%
    05:00 +10°C° 0 mm 5 mps 748 mmHg 75%
    06:00 +10°C° 0 mm 5 mps 748 mmHg 78%
    07:00 +10°C° 0 mm 5 mps 748 mmHg 80%
    08:00 +11°C° 0.1 mm 6 mps 748 mmHg 77%
    09:00 +11°C° 0.1 mm 6 mps 748 mmHg 75%
    10:00 +13°C° 0.1 mm 6 mps 749 mmHg 72%
    11:00 +14°C° 0.3 mm 7 mps 748 mmHg 70%
    12:00 +14°C° 0.3 mm 7 mps 748 mmHg 68%
    13:00 +15°C° 0.3 mm 8 mps 748 mmHg 66%
    14:00 +15°C° 0.3 mm 8 mps 748 mmHg 67%
    15:00 +15°C° 0.3 mm 8 mps 748 mmHg 68%
    16:00 +15°C° 0.3 mm 8 mps 748 mmHg 69%
    17:00 +14°C° 0.2 mm 7 mps 748 mmHg 71%
    18:00 +12°C° 0.2 mm 7 mps 748 mmHg 73%
    19:00 +11°C° 0.2 mm 6 mps 749 mmHg 75%
    20:00 +11°C° 0 mm 6 mps 749 mmHg 73%
    21:00 +11°C° 0 mm 6 mps 750 mmHg 72%
    22:00 +11°C° 0 mm 6 mps 750 mmHg 71%
    23:00 +11°C° 0 mm 6 mps 750 mmHg 73%

    Day after tomorrow, 25 September, Monday

    Time Temperature Precipitation Wind Pressure Humidity
    00:00 +10°C° 0 mm 5 mps 751 mmHg 75%
    01:00 +10°C° 0 mm 5 mps 751 mmHg 77%
    02:00 +10°C° 0.2 mm 5 mps 751 mmHg 80%
    03:00 +11°C° 0.2 mm 4 mps 751 mmHg 83%
    04:00 +10°C° 0.2 mm 4 mps 751 mmHg 86%
    05:00 +10°C° 0.3 mm 4 mps 752 mmHg 89%
    06:00 +10°C° 0.3 mm 4 mps 752 mmHg 91%
    07:00 +10°C° 0.3 mm 3 mps 753 mmHg 93%
    08:00 +11°C° 0.1 mm 4 mps 753 mmHg 88%
    09:00 +11°C° 0.1 mm 4 mps 754 mmHg 82%
    10:00 +12°C° 0.1 mm 5 mps 755 mmHg 76%
    11:00 +12°C° 0.2 mm 5 mps 755 mmHg 75%
    12:00 +12°C° 0.2 mm 5 mps 755 mmHg 74%
    13:00 +12°C° 0.2 mm 5 mps 756 mmHg 72%
    14:00 +12°C° 0.1 mm 5 mps 756 mmHg 70%
    15:00 +12°C° 0.1 mm 5 mps 756 mmHg 67%
    16:00 +12°C° 0.1 mm 4 mps 756 mmHg 65%
    17:00 +11°C° 0 mm 4 mps 757 mmHg 67%
    18:00 +10°C° 0 mm 3 mps 758 mmHg 69%
    19:00 +9°C° 0 mm 3 mps 758 mmHg 72%
    20:00 +8°C° 0 mm 3 mps 759 mmHg 76%
    21:00 +7°C° 0 mm 2 mps 760 mmHg 80%
    22:00 +6°C° 0 mm 2 mps 760 mmHg 84%
    23:00 +6°C° 0 mm 2 mps 760 mmHg 86%

    26 September, Tuesday

    Time Temperature Precipitation Wind Pressure Humidity
    00:00 +5°C° 0 mm 2 mps 760 mmHg 87%
    01:00 +5°C° 0 mm 2 mps 760 mmHg 88%
    02:00 +5°C° 0 mm 2 mps 760 mmHg 89%
    03:00 +5°C° 0 mm 2 mps 760 mmHg 90%
    04:00 +4°C° 0 mm 2 mps 760 mmHg 90%
    05:00 +5°C° 0 mm 2 mps 761 mmHg 88%
    06:00 +5°C° 0 mm 2 mps 761 mmHg 86%
    07:00 +6°C° 0 mm 1 mps 761 mmHg 85%
    08:00 +9°C° 0 mm 1 mps 761 mmHg 74%
    09:00 +12°C° 0 mm 1 mps 761 mmHg 63%
    10:00 +15°C° 0 mm 1 mps 761 mmHg 52%
    11:00 +16°C° 0 mm 1 mps 761 mmHg 48%
    12:00 +18°C° 0 mm 1 mps 761 mmHg 45%
    13:00 +19°C° 0 mm 1 mps 760 mmHg 42%
    14:00 +19°C° 0 mm 1 mps 760 mmHg 43%
    15:00 +18°C° 0 mm 2 mps 759 mmHg 44%
    16:00 +18°C° 0 mm 2 mps 758 mmHg 46%
    17:00 +16°C° 0 mm 2 mps 758 mmHg 53%
    18:00 +14°C° 0 mm 2 mps 759 mmHg 61%
    19:00 +12°C° 0 mm 2 mps 759 mmHg 69%
    20:00 +12°C° 0 mm 2 mps 759 mmHg 73%
    21:00 +10°C° 0 mm 2 mps 759 mmHg 77%
    22:00 +9°C° 0 mm 2 mps 759 mmHg 81%
    23:00 +9°C° 0 mm 2 mps 758 mmHg 78%

    27 September, Wednesday

    Time Temperature Precipitation Wind Pressure Humidity
    00:00 +10°C° 0 mm 2 mps 757 mmHg 75%
    01:00 +10°C° 0 mm 3 mps 756 mmHg 72%
    02:00 +10°C° 0.2 mm 3 mps 755 mmHg 75%
    03:00 +10°C° 0.2 mm 3 mps 754 mmHg 78%
    04:00 +10°C° 0.2 mm 3 mps 753 mmHg 81%
    05:00 +11°C° 0 mm 4 mps 753 mmHg 77%
    06:00 +12°C° 0 mm 4 mps 753 mmHg 72%
    07:00 +12°C° 0 mm 4 mps 752 mmHg 68%
    08:00 +15°C° 0 mm 5 mps 751 mmHg 60%
    09:00 +17°C° 0 mm 6 mps 751 mmHg 52%
    10:00 +20°C° 0 mm 7 mps 750 mmHg 43%
    11:00 +21°C° 0 mm 7 mps 750 mmHg 42%
    12:00 +22°C° 0 mm 7 mps 750 mmHg 40%
    13:00 +23°C° 0 mm 8 mps 749 mmHg 38%
    14:00 +22°C° 0.1 mm 7 mps 749 mmHg 46%
    15:00 +20°C° 0.1 mm 7 mps 749 mmHg 53%
    16:00 +18°C° 0.1 mm 7 mps 749 mmHg 61%
    17:00 +17°C° 0.1 mm 6 mps 750 mmHg 65%
    18:00 +15°C° 0.1 mm 5 mps 751 mmHg 69%
    19:00 +14°C° 0.1 mm 5 mps 752 mmHg 73%
    20:00 +13°C° 0 mm 4 mps 753 mmHg 75%
    21:00 +13°C° 0 mm 4 mps 753 mmHg 77%
    22:00 +12°C° 0 mm 4 mps 754 mmHg 78%
    23:00 +12°C° 0 mm 4 mps 754 mmHg 82%

    28 September, Thursday

    Time Temperature Precipitation Wind Pressure Humidity
    00:00 +11°C° 0 mm 4 mps 754 mmHg 85%
    01:00 +10°C° 0 mm 3 mps 754 mmHg 89%
    02:00 +9°C° 0 mm 3 mps 755 mmHg 91%
    03:00 +9°C° 0 mm 3 mps 755 mmHg 92%
    04:00 +9°C° 0 mm 3 mps 755 mmHg 94%
    05:00 +8°C° 0 mm 3 mps 756 mmHg 92%
    06:00 +8°C° 0 mm 3 mps 757 mmHg 91%
    07:00 +8°C° 0 mm 3 mps 758 mmHg 89%
    08:00 +10°C° 0 mm 3 mps 758 mmHg 78%
    09:00 +12°C° 0 mm 3 mps 758 mmHg 67%
    10:00 +14°C° 0 mm 3 mps 758 mmHg 56%
    11:00 +14°C° 0 mm 3 mps 758 mmHg 57%
    12:00 +14°C° 0 mm 3 mps 758 mmHg 57%
    13:00 +14°C° 0 mm 3 mps 758 mmHg 58%
    14:00 +14°C° 0.1 mm 3 mps 758 mmHg 62%
    15:00 +14°C° 0.1 mm 4 mps 758 mmHg 66%
    16:00 +14°C° 0.1 mm 4 mps 758 mmHg 70%
    17:00 +12°C° 0.1 mm 3 mps 759 mmHg 75%
    18:00 +11°C° 0.1 mm 3 mps 759 mmHg 80%
    19:00 +10°C° 0.1 mm 3 mps 760 mmHg 85%
    20:00 +9°C° 0 mm 3 mps 760 mmHg 86%
    21:00 +9°C° 0 mm 3 mps 761 mmHg 87%
    22:00 +8°C° 0 mm 3 mps 761 mmHg 88%
    23:00 +7°C° 0 mm 3 mps 761 mmHg 87%
    Show more